LAV1372 LEZL-LESO

Flight info

Callsign LAV1372
Flight time 1h 25m
Altitude 34000
Route HIJ DCT PARKA DCT TLD DCT SIE DCT EDIGO DCT DGO L176 SSN
Aircraft B738/M-SDGIJ1LRWY/SB1

Departure

Time 2026-05-07 11:10
Airport Seville Airport (LEZL)

Arrival

Time 2026-05-07 12:35
Airport San Sebastián Airport (LESO)
Time Latitude Longitude Altitude Speed Heading
2026-05-07 10:44 37.42159 -5.89765 94 ft 0 kts 315°
2026-05-07 11:05 37.42170 -5.89778 94 ft 4 kts 315°
2026-05-07 11:05 37.42209 -5.89815 94 ft 7 kts 350°
2026-05-07 11:05 37.42256 -5.89763 94 ft 10 kts 50°
2026-05-07 11:05 37.42243 -5.89698 94 ft 9 kts 136°
2026-05-07 11:06 37.42195 -5.89635 95 ft 11 kts 133°
2026-05-07 11:06 37.42126 -5.89545 95 ft 17 kts 134°
2026-05-07 11:06 37.42041 -5.89434 95 ft 17 kts 134°
2026-05-07 11:06 37.41981 -5.89306 96 ft 17 kts 91°
2026-05-07 11:07 37.41982 -5.89125 96 ft 23 kts 89°
2026-05-07 11:07 37.41982 -5.88924 98 ft 23 kts 91°
2026-05-07 11:07 37.41983 -5.88712 99 ft 25 kts 90°
2026-05-07 11:07 37.41985 -5.88473 100 ft 27 kts 90°
2026-05-07 11:08 37.41980 -5.88240 102 ft 26 kts 88°
2026-05-07 11:08 37.41986 -5.88013 103 ft 25 kts 90°
2026-05-07 11:08 37.41985 -5.87786 105 ft 25 kts 90°
2026-05-07 11:08 37.41986 -5.87578 107 ft 22 kts 95°
2026-05-07 11:09 37.41910 -5.87429 108 ft 21 kts 165°
2026-05-07 11:09 37.41802 -5.87524 107 ft 24 kts 265°
2026-05-07 11:09 37.41798 -5.88003 104 ft 90 kts 269°
2026-05-07 11:09 37.41794 -5.89067 97 ft 150 kts 269°
2026-05-07 11:10 37.41798 -5.90422 563 ft 157 kts 266°
2026-05-07 11:10 37.41794 -5.91762 1266 ft 154 kts 272°
2026-05-07 11:10 37.42256 -5.92995 1769 ft 171 kts 315°
2026-05-07 11:10 37.43217 -5.93896 2417 ft 175 kts 321°
2026-05-07 11:11 37.44201 -5.94936 2836 ft 196 kts 314°
2026-05-07 11:11 37.45234 -5.96163 3339 ft 214 kts 314°
2026-05-07 11:11 37.46339 -5.97490 3896 ft 230 kts 314°
2026-05-07 11:11 37.47535 -5.98917 4545 ft 243 kts 314°
2026-05-07 11:12 37.48783 -6.00401 5173 ft 256 kts 315°
2026-05-07 11:12 37.50110 -6.01977 5796 ft 270 kts 315°
2026-05-07 11:12 37.51502 -6.03631 6488 ft 281 kts 315°
2026-05-07 11:12 37.52933 -6.05336 7326 ft 287 kts 315°
2026-05-07 11:13 37.54404 -6.07053 8246 ft 290 kts 318°
2026-05-07 11:13 37.56030 -6.08494 9193 ft 293 kts 332°
2026-05-07 11:13 37.57982 -6.09275 10176 ft 296 kts 351°
2026-05-07 11:13 37.60050 -6.09358 10881 ft 309 kts
2026-05-07 11:14 37.62212 -6.08862 11589 ft 323 kts 16°
2026-05-07 11:14 37.64266 -6.07642 12244 ft 338 kts 34°
2026-05-07 11:14 37.66134 -6.05726 12942 ft 351 kts 41°
2026-05-07 11:14 37.67961 -6.03629 13761 ft 360 kts 42°
2026-05-07 11:15 37.69786 -6.01516 14742 ft 364 kts 41°
2026-05-07 11:15 37.71659 -5.99372 15775 ft 367 kts 40°
2026-05-07 11:15 37.73574 -5.97208 16699 ft 372 kts 39°
2026-05-07 11:15 37.75496 -5.95054 17615 ft 377 kts 39°
2026-05-07 11:16 37.77464 -5.92856 18511 ft 381 kts 38°
2026-05-07 11:16 37.79467 -5.90626 19314 ft 387 kts 37°
2026-05-07 11:16 37.81485 -5.88380 20169 ft 391 kts 37°
2026-05-07 11:16 37.83521 -5.86113 20937 ft 396 kts 37°
2026-05-07 11:17 37.85586 -5.83813 21721 ft 400 kts 36°
2026-05-07 11:17 37.87692 -5.81463 22462 ft 405 kts 36°
2026-05-07 11:17 37.89805 -5.79106 23088 ft 412 kts 36°
2026-05-07 11:17 37.91969 -5.76685 23802 ft 416 kts 35°
2026-05-07 11:18 37.94154 -5.74241 24511 ft 420 kts 35°
2026-05-07 11:18 37.96325 -5.71808 25192 ft 424 kts 35°
2026-05-07 11:18 37.98550 -5.69311 25822 ft 429 kts 34°
2026-05-07 11:18 37.98873 -5.68948 25903 ft 430 kts 34°
2026-05-07 11:19 38.00930 -5.66638 26492 ft 433 kts 34°
2026-05-07 11:19 38.03195 -5.64091 27164 ft 436 kts 34°
2026-05-07 11:19 38.05451 -5.61554 27702 ft 441 kts 34°
2026-05-07 11:19 38.07812 -5.59119 28382 ft 435 kts 27°
2026-05-07 11:20 38.10394 -5.57202 29167 ft 423 kts 17°
2026-05-07 11:20 38.13083 -5.55883 30140 ft 407 kts
2026-05-07 11:20 38.15782 -5.54890 31040 ft 398 kts
2026-05-07 11:20 38.18444 -5.53989 31554 ft 401 kts
2026-05-07 11:21 38.21172 -5.53016 32034 ft 406 kts
2026-05-07 11:21 38.23878 -5.51947 32481 ft 411 kts
2026-05-07 11:21 38.26583 -5.50784 32865 ft 417 kts 11°
2026-05-07 11:21 38.29338 -5.49521 33288 ft 420 kts 12°
2026-05-07 11:22 38.32042 -5.48234 33511 ft 419 kts 12°
2026-05-07 11:22 38.34767 -5.46907 33742 ft 417 kts 13°
2026-05-07 11:22 38.37478 -5.45576 33904 ft 418 kts 13°
2026-05-07 11:22 38.40207 -5.44234 33914 ft 419 kts 13°
2026-05-07 11:23 38.45600 -5.41567 33899 ft 415 kts 13°
2026-05-07 11:23 38.50988 -5.38904 33915 ft 416 kts 13°
2026-05-07 11:24 38.56396 -5.36233 33899 ft 417 kts 13°
2026-05-07 11:24 38.61791 -5.33583 33907 ft 417 kts 14°
2026-05-07 11:25 38.67237 -5.30948 33910 ft 418 kts 14°
2026-05-07 11:25 38.72699 -5.28308 33903 ft 421 kts 14°
2026-05-07 11:26 38.78162 -5.25658 33896 ft 420 kts 14°
2026-05-07 11:26 38.83627 -5.23007 33895 ft 422 kts 14°
2026-05-07 11:27 38.89107 -5.20334 33903 ft 422 kts 14°
2026-05-07 11:27 38.94574 -5.17662 33894 ft 421 kts 14°
2026-05-07 11:28 39.00017 -5.14751 33899 ft 427 kts 20°
2026-05-07 11:28 39.05182 -5.10936 33894 ft 433 kts 26°
2026-05-07 11:29 39.10220 -5.06755 33902 ft 432 kts 27°
2026-05-07 11:29 39.15268 -5.02498 33890 ft 430 kts 27°
2026-05-07 11:30 39.20265 -4.98303 33894 ft 432 kts 27°
2026-05-07 11:30 39.25348 -4.94057 33897 ft 436 kts 27°
2026-05-07 11:31 39.30410 -4.89837 33894 ft 434 kts 28°
2026-05-07 11:31 39.35509 -4.85587 33897 ft 438 kts 28°
2026-05-07 11:32 39.43147 -4.79204 33895 ft 437 kts 28°
2026-05-07 11:33 39.48227 -4.74950 33895 ft 436 kts 28°
2026-05-07 11:33 39.53332 -4.70669 33895 ft 437 kts 28°
2026-05-07 11:34 39.58429 -4.66387 33891 ft 437 kts 29°
2026-05-07 11:34 39.63553 -4.62075 33892 ft 439 kts 29°
2026-05-07 11:35 39.68670 -4.57757 33892 ft 439 kts 30°
2026-05-07 11:35 39.73782 -4.53438 33889 ft 439 kts 30°
2026-05-07 11:36 39.78895 -4.49113 33888 ft 439 kts 30°
2026-05-07 11:36 39.84003 -4.44783 33887 ft 439 kts 30°
2026-05-07 11:37 39.89105 -4.40451 33887 ft 438 kts 30°
2026-05-07 11:37 39.94216 -4.36105 33886 ft 441 kts 30°
2026-05-07 11:38 39.99467 -4.32079 33882 ft 438 kts 25°
2026-05-07 11:38 40.04941 -4.28674 33889 ft 439 kts 22°
2026-05-07 11:39 40.10521 -4.25364 33873 ft 439 kts 22°
2026-05-07 11:39 40.16053 -4.22056 33873 ft 438 kts 22°
2026-05-07 11:40 40.21566 -4.18720 33893 ft 437 kts 23°
2026-05-07 11:40 40.27097 -4.15345 33905 ft 438 kts 23°
2026-05-07 11:41 40.32594 -4.11972 33913 ft 439 kts 23°
2026-05-07 11:41 40.38119 -4.08573 33926 ft 440 kts 24°
2026-05-07 11:42 40.43667 -4.05150 33924 ft 441 kts 24°
2026-05-07 11:42 40.49218 -4.01721 33930 ft 442 kts 24°
2026-05-07 11:43 40.54758 -3.98292 33937 ft 441 kts 24°
2026-05-07 11:43 40.60288 -3.94864 33944 ft 440 kts 24°
2026-05-07 11:44 40.65845 -3.91414 33947 ft 442 kts 24°
2026-05-07 11:44 40.71388 -3.87965 33947 ft 442 kts 24°
2026-05-07 11:45 40.76891 -3.84534 33930 ft 441 kts 24°
2026-05-07 11:45 40.82469 -3.81050 33951 ft 443 kts 25°
2026-05-07 11:46 40.88049 -3.77561 33953 ft 444 kts 25°
2026-05-07 11:46 40.93588 -3.74090 33946 ft 444 kts 25°
2026-05-07 11:47 40.99201 -3.70562 33937 ft 445 kts 25°
2026-05-07 11:47 41.04779 -3.67051 33935 ft 444 kts 25°
2026-05-07 11:48 41.10327 -3.63551 33950 ft 445 kts 25°
2026-05-07 11:48 41.15936 -3.60016 33952 ft 446 kts 24°
2026-05-07 11:49 41.21627 -3.56764 33938 ft 445 kts 21°
2026-05-07 11:49 41.27387 -3.53689 33931 ft 445 kts 21°
2026-05-07 11:50 41.33109 -3.50634 33946 ft 445 kts 21°
2026-05-07 11:50 41.38851 -3.47532 33944 ft 446 kts 21°
2026-05-07 11:51 41.44588 -3.44405 33941 ft 447 kts 21°
2026-05-07 11:51 41.50368 -3.41234 33939 ft 449 kts 22°
2026-05-07 11:52 41.56102 -3.38072 33944 ft 447 kts 22°
2026-05-07 11:52 41.61873 -3.34886 33955 ft 449 kts 23°
2026-05-07 11:53 41.67618 -3.31708 33948 ft 449 kts 23°
2026-05-07 11:53 41.73376 -3.28516 33946 ft 449 kts 23°
2026-05-07 11:54 41.79152 -3.25307 33949 ft 449 kts 23°
2026-05-07 11:54 41.84893 -3.22113 33949 ft 449 kts 23°
2026-05-07 11:55 41.90667 -3.18892 33947 ft 449 kts 23°
2026-05-07 11:55 41.96411 -3.15682 33953 ft 449 kts 23°
2026-05-07 11:56 42.02171 -3.12459 33963 ft 451 kts 23°
2026-05-07 11:56 42.07960 -3.09214 33565 ft 446 kts 24°
2026-05-07 11:56 42.10812 -3.07612 33064 ft 444 kts 24°
2026-05-07 11:57 42.13661 -3.06010 32451 ft 445 kts 24°
2026-05-07 11:57 42.16515 -3.04403 31786 ft 446 kts 24°
2026-05-07 11:57 42.19361 -3.02799 31086 ft 448 kts 24°
2026-05-07 11:57 42.22225 -3.01183 30526 ft 445 kts 24°
2026-05-07 11:58 42.25076 -2.99575 30021 ft 439 kts 24°
2026-05-07 11:58 42.27866 -2.97999 29529 ft 434 kts 24°
2026-05-07 11:58 42.30615 -2.96445 29038 ft 429 kts 24°
2026-05-07 11:58 42.33337 -2.94903 28501 ft 425 kts 24°
2026-05-07 11:59 42.36076 -2.93350 27639 ft 430 kts 23°
2026-05-07 11:59 42.38844 -2.91778 26830 ft 432 kts 23°
2026-05-07 11:59 42.41559 -2.90225 26495 ft 422 kts 24°
2026-05-07 11:59 42.44176 -2.88539 26119 ft 414 kts 29°
2026-05-07 12:00 42.46600 -2.86514 25658 ft 407 kts 36°
2026-05-07 12:00 42.48812 -2.84201 25171 ft 401 kts 41°
2026-05-07 12:00 42.50909 -2.81751 24682 ft 396 kts 43°
2026-05-07 12:00 42.52946 -2.79259 24202 ft 390 kts 43°
2026-05-07 12:01 42.54922 -2.76813 23727 ft 385 kts 43°
2026-05-07 12:01 42.56876 -2.74394 23257 ft 380 kts 43°
2026-05-07 12:01 42.58823 -2.71994 22791 ft 375 kts 43°
2026-05-07 12:01 42.60731 -2.69653 22329 ft 370 kts 43°
2026-05-07 12:02 42.62620 -2.67340 21877 ft 366 kts 43°
2026-05-07 12:02 42.64506 -2.65037 21415 ft 362 kts 43°
2026-05-07 12:02 42.66374 -2.62760 20963 ft 358 kts 42°
2026-05-07 12:02 42.68205 -2.60535 20519 ft 354 kts 42°
2026-05-07 12:03 42.70020 -2.58327 20076 ft 351 kts 42°
2026-05-07 12:03 42.71819 -2.56136 19631 ft 348 kts 42°
2026-05-07 12:03 42.73616 -2.53946 19180 ft 345 kts 42°
2026-05-07 12:03 42.75401 -2.51769 18736 ft 351 kts 42°
2026-05-07 12:04 42.77266 -2.49492 18255 ft 363 kts 42°
2026-05-07 12:04 42.79114 -2.47234 17787 ft 361 kts 42°
2026-05-07 12:04 42.80978 -2.44960 17312 ft 357 kts 42°
2026-05-07 12:04 42.82816 -2.42716 16840 ft 353 kts 41°
2026-05-07 12:05 42.84620 -2.40514 16378 ft 350 kts 41°
2026-05-07 12:05 42.86422 -2.38309 15919 ft 346 kts 41°
2026-05-07 12:05 42.88192 -2.36143 15457 ft 343 kts 41°
2026-05-07 12:05 42.89958 -2.33982 15006 ft 339 kts 42°
2026-05-07 12:06 42.91719 -2.31823 14546 ft 336 kts 42°
2026-05-07 12:06 42.93430 -2.29725 14098 ft 333 kts 42°
2026-05-07 12:06 42.95146 -2.27619 13648 ft 330 kts 42°
2026-05-07 12:06 42.96852 -2.25524 13193 ft 327 kts 42°
2026-05-07 12:07 42.98514 -2.23481 12765 ft 324 kts 42°
2026-05-07 12:07 43.00191 -2.21417 12319 ft 321 kts 42°
2026-05-07 12:07 43.01833 -2.19393 11900 ft 318 kts 42°
2026-05-07 12:07 43.03467 -2.17376 11476 ft 316 kts 43°
2026-05-07 12:08 43.05073 -2.15392 11035 ft 313 kts 43°
2026-05-07 12:08 43.06687 -2.13395 10609 ft 311 kts 43°
2026-05-07 12:08 43.08285 -2.11420 10240 ft 306 kts 43°
2026-05-07 12:08 43.09829 -2.09511 10066 ft 295 kts 43°
2026-05-07 12:09 43.11334 -2.07650 9843 ft 287 kts 43°
2026-05-07 12:09 43.12801 -2.05835 9435 ft 287 kts 43°
2026-05-07 12:09 43.14272 -2.04013 9050 ft 285 kts 43°
2026-05-07 12:09 43.15738 -2.02194 8685 ft 282 kts 43°
2026-05-07 12:10 43.17167 -2.00421 8327 ft 280 kts 43°
2026-05-07 12:10 43.18607 -1.98633 7967 ft 278 kts 43°
2026-05-07 12:10 43.20018 -1.96880 7636 ft 274 kts 43°
2026-05-07 12:10 43.21424 -1.95133 7369 ft 268 kts 43°
2026-05-07 12:11 43.22781 -1.93444 7036 ft 267 kts 43°
2026-05-07 12:11 43.24150 -1.91740 6688 ft 266 kts 43°
2026-05-07 12:11 43.25525 -1.90029 6345 ft 264 kts 43°
2026-05-07 12:11 43.26873 -1.88349 6007 ft 263 kts 43°
2026-05-07 12:12 43.28222 -1.86668 5708 ft 259 kts 43°
2026-05-07 12:12 43.29610 -1.85195 5581 ft 250 kts 31°
2026-05-07 12:12 43.31221 -1.84489 5489 ft 241 kts 359°
2026-05-07 12:12 43.32838 -1.85077 5497 ft 247 kts 329°
2026-05-07 12:13 43.34198 -1.86506 5489 ft 246 kts 318°
2026-05-07 12:13 43.35475 -1.88031 5477 ft 237 kts 319°
2026-05-07 12:13 43.36721 -1.89485 5486 ft 236 kts 319°
2026-05-07 12:13 43.37981 -1.90936 5476 ft 235 kts 319°
2026-05-07 12:14 43.39222 -1.92363 5472 ft 235 kts 319°
2026-05-07 12:14 43.40469 -1.93799 5433 ft 231 kts 319°
2026-05-07 12:14 43.41696 -1.95206 5196 ft 228 kts 321°
2026-05-07 12:14 43.43010 -1.96342 5085 ft 218 kts 339°
2026-05-07 12:15 43.44472 -1.96559 5084 ft 214 kts 11°
2026-05-07 12:15 43.45860 -1.95878 5087 ft 213 kts 31°
2026-05-07 12:15 43.47027 -1.94628 5086 ft 210 kts 52°
2026-05-07 12:15 43.47774 -1.92940 5096 ft 207 kts 65°
2026-05-07 12:16 43.48401 -1.91218 5086 ft 196 kts 65°
2026-05-07 12:16 43.49041 -1.89554 5083 ft 195 kts 64°
2026-05-07 12:16 43.49689 -1.87926 5078 ft 196 kts 63°
2026-05-07 12:16 43.50352 -1.86270 5076 ft 196 kts 63°
2026-05-07 12:17 43.50997 -1.84658 5088 ft 189 kts 63°
2026-05-07 12:17 43.51624 -1.83088 5096 ft 186 kts 63°
2026-05-07 12:17 43.52252 -1.81509 5096 ft 187 kts 63°
2026-05-07 12:17 43.52873 -1.79951 5095 ft 187 kts 63°
2026-05-07 12:18 43.53503 -1.78368 5044 ft 185 kts 63°
2026-05-07 12:18 43.54111 -1.76841 4808 ft 184 kts 63°
2026-05-07 12:18 43.54657 -1.75248 4590 ft 180 kts 76°
2026-05-07 12:18 43.54638 -1.73586 4577 ft 180 kts 114°
2026-05-07 12:19 43.53927 -1.72198 4571 ft 171 kts 133°
2026-05-07 12:19 43.53151 -1.70994 4371 ft 169 kts 130°
2026-05-07 12:19 43.52409 -1.69746 4134 ft 168 kts 128°
2026-05-07 12:19 43.51676 -1.68487 3903 ft 167 kts 128°
2026-05-07 12:20 43.50948 -1.67253 3678 ft 165 kts 130°
2026-05-07 12:20 43.50002 -1.66426 3472 ft 164 kts 168°
2026-05-07 12:20 43.48868 -1.66427 3266 ft 163 kts 186°
2026-05-07 12:20 43.47771 -1.66775 3040 ft 164 kts 194°
2026-05-07 12:21 43.46699 -1.67363 2804 ft 165 kts 204°
2026-05-07 12:21 43.45715 -1.68161 2564 ft 166 kts 211°
2026-05-07 12:21 43.44775 -1.69085 2320 ft 165 kts 213°
2026-05-07 12:21 43.43893 -1.70013 2082 ft 155 kts 214°
2026-05-07 12:22 43.43078 -1.70892 1887 ft 142 kts 214°
2026-05-07 12:22 43.42331 -1.71705 1698 ft 136 kts 214°
2026-05-07 12:22 43.41579 -1.72526 1483 ft 137 kts 215°
2026-05-07 12:22 43.40842 -1.73367 1304 ft 138 kts 217°
2026-05-07 12:23 43.40110 -1.74212 1123 ft 139 kts 216°
2026-05-07 12:23 43.39344 -1.75039 917 ft 140 kts 214°
2026-05-07 12:23 43.38581 -1.75842 712 ft 137 kts 214°
2026-05-07 12:23 43.37818 -1.76656 491 ft 142 kts 218°
2026-05-07 12:24 43.37058 -1.77510 306 ft 142 kts 219°
2026-05-07 12:24 43.36306 -1.78353 108 ft 136 kts 213°
2026-05-07 12:24 43.35594 -1.79136 27 ft 130 kts 224°
2026-05-07 12:24 43.34853 -1.80012 851 ft 144 kts 217°
2026-05-07 12:25 43.33991 -1.80994 1301 ft 180 kts 218°
2026-05-07 12:25 43.33035 -1.82151 2277 ft 185 kts 219°
2026-05-07 12:25 43.32037 -1.83400 2581 ft 207 kts 226°
2026-05-07 12:25 43.31417 -1.85172 2476 ft 204 kts 262°
2026-05-07 12:26 43.31667 -1.87011 2483 ft 199 kts 300°
2026-05-07 12:26 43.32665 -1.88275 2487 ft 205 kts 337°
2026-05-07 12:26 43.34071 -1.88712 2484 ft 205 kts 355°
2026-05-07 12:26 43.35500 -1.88864 2482 ft 205 kts 360°
2026-05-07 12:27 43.36923 -1.88908 2481 ft 205 kts
2026-05-07 12:27 43.38345 -1.88904 2480 ft 205 kts
2026-05-07 12:27 43.39586 -1.88105 2486 ft 196 kts 46°
2026-05-07 12:27 43.40525 -1.86764 2485 ft 197 kts 46°
2026-05-07 12:28 43.41606 -1.85608 2483 ft 199 kts 35°
2026-05-07 12:28 43.42805 -1.84604 2481 ft 201 kts 32°
2026-05-07 12:28 43.44005 -1.83635 2481 ft 201 kts 33°
2026-05-07 12:28 43.45212 -1.82639 2480 ft 201 kts 33°
2026-05-07 12:29 43.46406 -1.81638 2468 ft 201 kts 34°
2026-05-07 12:29 43.47590 -1.80643 2483 ft 199 kts 34°
2026-05-07 12:29 43.48750 -1.79669 2494 ft 191 kts 34°
2026-05-07 12:29 43.49846 -1.78739 2476 ft 176 kts 38°
2026-05-07 12:30 43.50525 -1.77418 2484 ft 172 kts 81°
2026-05-07 12:30 43.50375 -1.75828 2486 ft 170 kts 107°
2026-05-07 12:30 43.50084 -1.74251 2481 ft 169 kts 100°
2026-05-07 12:30 43.49926 -1.72651 2482 ft 169 kts 97°
2026-05-07 12:31 43.49791 -1.71055 2483 ft 169 kts 97°
2026-05-07 12:31 43.49589 -1.69485 2476 ft 162 kts 112°
2026-05-07 12:31 43.48847 -1.68380 2483 ft 163 kts 155°
2026-05-07 12:31 43.47723 -1.68181 2491 ft 165 kts 180°
2026-05-07 12:32 43.46589 -1.68429 2463 ft 163 kts 192°
2026-05-07 12:32 43.45518 -1.68907 2336 ft 161 kts 199°
2026-05-07 12:32 43.44518 -1.69569 2154 ft 161 kts 206°
2026-05-07 12:32 43.43590 -1.70400 2003 ft 157 kts 212°
2026-05-07 12:33 43.42012 -1.72219 1766 ft 139 kts 220°
2026-05-07 12:33 43.41311 -1.73128 1600 ft 139 kts 217°
2026-05-07 12:33 43.40563 -1.73943 1348 ft 138 kts 213°
2026-05-07 12:34 43.39797 -1.74740 1023 ft 137 kts 214°
2026-05-07 12:34 43.39031 -1.75511 796 ft 137 kts 212°
2026-05-07 12:34 43.38235 -1.76249 578 ft 139 kts 212°
2026-05-07 12:34 43.37483 -1.77043 391 ft 137 kts 216°
2026-05-07 12:35 43.36736 -1.77865 185 ft 138 kts 216°
2026-05-07 12:35 43.35982 -1.78695 27 ft 137 kts 218°
2026-05-07 12:35 43.35453 -1.79279 23 ft 58 kts 218°
2026-05-07 12:35 43.35202 -1.79557 22 ft 25 kts 217°
2026-05-07 12:36 43.35114 -1.79653 22 ft 8 kts 227°
2026-05-07 12:36 43.35091 -1.79714 22 ft 4 kts 252°
2026-05-07 12:36 43.35068 -1.79727 22 ft 4 kts 146°
2026-05-07 12:36 43.35083 -1.79676 22 ft 10 kts 40°
2026-05-07 12:37 43.35170 -1.79588 22 ft 20 kts 38°
2026-05-07 12:37 43.35287 -1.79458 22 ft 23 kts 39°
2026-05-07 12:37 43.35428 -1.79307 22 ft 26 kts 39°
2026-05-07 12:37 43.35509 -1.79239 22 ft 9 kts 338°
2026-05-07 12:38 43.35545 -1.79283 22 ft 4 kts 322°
2026-05-07 12:38 43.35578 -1.79295 22 ft 3 kts 30°
2026-05-07 12:38 43.35586 -1.79286 22 ft 2 kts 38°
2026-05-07 12:38 43.35593 -1.79278 22 ft 0 kts 37°